Bakersfield, CA

9:58 AM PDT on June 22, 2017 (GMT -0700)
Meadows

Weather History for KBFL - October, 2012

Change the Weather History Date:

Friday, October 12, 2012

  Actual Average Record
Temperature  
Mean Temperature 63 °F 69 °F  
Max Temperature 70 °F 81 °F 98 °F (1918)
Min Temperature 55 °F 56 °F 38 °F (1912)
Degree Days  
Heating Degree Days 2    
Month to date heating degree days 4  
Since 1 July heating degree days 4  
Cooling Degree Days 0    
Month to date cooling degree days 92  
Year to date cooling degree days 2517  
Growing Degree Days 12 (Base 50)    
Moisture  
Dew Point 49 °F    
Average Humidity 65    
Maximum Humidity 83    
Minimum Humidity 47    
Precipitation  
Precipitation T in 0.00 in 0.12 in (1925)
Month to date precipitation 0.01 0.06  
Year to date precipitation 3.65 4.57  
Since 1 July precipitation 0.03  
Snow  
Snow 0.00 in - - ()
Month to date snowfall 0.0  
Since 1 July snowfall 0.0  
Since 1 September snowfall 0.0  
Snow Depth 0.00 in    
Sea Level Pressure  
Sea Level Pressure 30.09 in    
Wind  
Wind Speed 5 mph (NNW)    
Max Wind Speed 14 mph    
Max Gust Speed 16 mph    
Visibility 10 miles    
Events Rain    
T = Trace of Precipitation, MM = Missing Value Source: NWS Daily Summary

Daily Weather History Graph

Daily Weather History Graph

Search for Another Location

Airport or City:

Trip Planner

Search our weather history database for the weather conditions in past years. The results will help you decide how hot, cold, wet, or windy it might be!

Date:

Astronomy

Oct. 12, 2012 Rise Set
Actual Time 7:00 AM PDT 6:24 PM PDT
Civil Twilight 6:34 AM PDT 6:49 PM PDT
Nautical Twilight 6:05 AM PDT 7:19 PM PDT
Astronomical Twilight 5:35 AM PDT 7:48 PM PDT
Moon 3:54 AM PDT (10/12) 4:32 PM PDT (10/12)
Length of Visible Light 12h 14m
Length of Day
11h 23m
Waning Crescent, 10% of the Moon is Illuminated
Oct 12
Waning Crescent
Oct 15
New
Oct 21
First Quarter
Oct 29
Full
Nov 6
Last Quarter

Hourly Weather History & Observations

Time (PDT) Temp. Dew Point Humidity Pressure Visibility Wind Dir Wind Speed Gust Speed Precip Events Conditions
12:54 AM 60.1 °F 52.0 °F 75% 29.95 in 8.0 mi East 3.5 mph - 0.00 in Rain Light Rain
1:54 AM 59.0 °F 54.0 °F 83% 29.96 in 10.0 mi Calm Calm - 0.00 in   Overcast
2:54 AM 57.0 °F 50.0 °F 77% 29.98 in 10.0 mi NW 9.2 mph - N/A   Overcast
3:54 AM 57.0 °F 51.1 °F 81% 29.98 in 10.0 mi NNW 5.8 mph - N/A   Overcast
4:54 AM 55.9 °F 50.0 °F 80% 30.00 in 10.0 mi NNW 6.9 mph - N/A   Mostly Cloudy
5:54 AM 55.0 °F 50.0 °F 83% 30.02 in 10.0 mi NW 4.6 mph - N/A   Clear
6:54 AM 55.9 °F 50.0 °F 80% 30.03 in 10.0 mi Calm Calm - N/A   Clear
7:54 AM 57.0 °F 50.0 °F 77% 30.06 in 9.0 mi SW 3.5 mph - N/A   Partly Cloudy
8:54 AM 59.0 °F 50.0 °F 72% 30.09 in 8.0 mi Calm Calm - N/A   Partly Cloudy
9:54 AM 62.1 °F 50.0 °F 65% 30.10 in 8.0 mi Calm Calm - N/A   Scattered Clouds
10:54 AM 63.0 °F 50.0 °F 63% 30.12 in 8.0 mi Calm Calm - N/A   Overcast
11:54 AM 64.0 °F 48.0 °F 56% 30.13 in 10.0 mi SSW 3.5 mph - N/A   Mostly Cloudy
12:54 PM 66.0 °F 48.0 °F 52% 30.13 in 10.0 mi NNW 6.9 mph - N/A   Mostly Cloudy
1:54 PM 69.1 °F 48.9 °F 49% 30.12 in 10.0 mi WNW 9.2 mph - N/A   Mostly Cloudy
2:54 PM 69.1 °F 48.0 °F 47% 30.11 in 10.0 mi NW 9.2 mph - N/A   Scattered Clouds
3:54 PM 69.1 °F 48.0 °F 47% 30.12 in 10.0 mi NW 9.2 mph - N/A   Clear
4:54 PM 66.9 °F 46.9 °F 49% 30.12 in 10.0 mi NW 8.1 mph - N/A   Mostly Cloudy
5:54 PM 66.0 °F 46.9 °F 50% 30.13 in 10.0 mi NW 8.1 mph - N/A   Partly Cloudy
6:54 PM 64.4 °F 48.2 °F 56% 30.14 in 10.0 mi North 5.8 mph - N/A   Partly Cloudy
7:54 PM 61.0 °F 48.0 °F 62% 30.15 in 10.0 mi North 4.6 mph - N/A   Clear
8:54 PM 60.1 °F 48.9 °F 67% 30.16 in 10.0 mi NNE 4.6 mph - N/A   Clear
9:54 PM 57.9 °F 48.9 °F 72% 30.18 in 9.0 mi NNE 3.5 mph - N/A   Clear
10:54 PM 57.0 °F 48.0 °F 72% 30.19 in 9.0 mi NNE 3.5 mph - N/A   Clear
11:54 PM 57.0 °F 48.0 °F 72% 30.19 in 9.0 mi Calm Calm - N/A   Clear